GW3957 Weather Reports


Display with metric or nautical units.
time (UTC)temp
F
wind
direction
speed
MPH
gust
MPH
rain 1hr
in
rain 24hr
in
rain mn
in
humidity
%
barometer
mb
20260505200807 72 278 1.0 9.0 0.00 0.00 0.00 39 1006.1
20260505200303 73 226 4.0 9.0 0.00 0.00 0.00 39 1006.4
20260505195758 73 85 2.0 3.0 0.00 0.00 0.00 39 1006.2
20260505195257 73 74 1.0 3.0 0.00 0.00 0.00 39 1006.2
20260505194753 73 47 1.0 7.0 0.00 0.00 0.00 40 1006.3
20260505194250 74 347 1.0 14.0 0.00 0.00 0.00 38 1006.3
20260505193745 75 149 2.0 9.0 0.00 0.00 0.00 38 1006.3
20260505193243 75 150 8.0 10.0 0.00 0.00 0.00 38 1006.3
20260505192742 75 156 6.0 10.0 0.00 0.00 0.00 38 1006.4
20260505192239 75 234 2.0 6.0 0.00 0.00 0.00 38 1006.2
20260505191737 75 109 5.0 16.0 0.00 0.00 0.00 38 1006.3
20260505191235 74 96 4.0 10.0 0.00 0.00 0.00 40 1006.5
20260505190731 73 226 1.0 4.0 0.00 0.00 0.00 39 1006.5
20260505190226 73 48 2.0 4.0 0.00 0.00 0.00 41 1006.9
20260505185722 73 201 1.0 6.0 0.00 0.00 0.00 39 1006.5
20260505185219 74 94 3.0 4.0 0.00 0.00 0.00 39 1006.6
20260505184715 75 49 3.0 8.0 0.00 0.00 0.00 38 1007.0
20260505184213 75 238 3.0 10.0 0.00 0.00 0.00 40 1007.0
20260505183709 75 141 2.0 8.0 0.00 0.00 0.00 38 1006.6
20260505183207 75 140 3.0 11.0 0.00 0.00 0.00 39 1006.8
20260505182702 75 318 5.0 7.0 0.00 0.00 0.00 39 1007.0
20260505182200 75 77 1.0 4.0 0.00 0.00 0.00 42 1007.1
20260505181656 74 250 3.0 10.0 0.00 0.00 0.00 43 1007.1
20260505181154 75 161 4.0 11.0 0.00 0.00 0.00 41 1007.3
20260505180650 75 89 4.0 8.0 0.00 0.00 0.00 43 1007.3
20260505180147 73 211 4.0 7.0 0.00 0.00 0.00 43 1007.5
20260505175643 73 119 1.0 9.0 0.00 0.00 0.00 44 1007.4
20260505175139 73 221 2.0 6.0 0.00 0.00 0.00 44 1007.5
20260505174636 74 153 4.0 9.0 0.00 0.00 0.00 44 1007.4
20260505174132 74 112 4.0 9.0 0.00 0.00 0.00 42 1007.5
20260505173629 74 147 0.0 9.0 0.00 0.00 0.00 43 1007.1
20260505173126 74 268 2.0 4.0 0.00 0.00 0.00 44 1007.3
20260505172624 73 85 2.0 3.0 0.00 0.00 0.00 46 1007.1
20260505172120 72 257 1.0 3.0 0.00 0.00 0.00 45 1007.1
20260505171615 72 86 2.0 7.0 0.00 0.00 0.00 47 1007.1
20260505171112 73 162 5.0 11.0 0.00 0.00 0.00 43 1007.1
20260505170609 74 178 5.0 7.0 0.00 0.00 0.00 45 1006.9
20260505170105 74 21 4.0 4.0 0.00 0.00 0.00 45 1007.0
20260505165600 73 344 3.0 4.0 0.00 0.00 0.00 45 1007.0
20260505165057 72 1 1.0 3.0 0.00 0.00 0.00 46 1007.1
20260505164552 73 277 1.0 6.0 0.00 0.00 0.00 47 1007.4
20260505164050 73 264 1.0 7.0 0.00 0.00 0.00 46 1007.4
20260505163548 73 51 0.0 3.0 0.00 0.00 0.00 46 1007.3
20260505163045 72 119 4.0 6.0 0.00 0.00 0.00 46 1007.6
20260505162538 72 135 4.0 10.0 0.00 0.00 0.00 47 1007.5
20260505162036 72 246 0.0 1.0 0.00 0.00 0.00 46 1007.5
20260505161532 72 104 4.0 8.0 0.00 0.00 0.00 48 1007.6
20260505161029 72 98 2.0 4.0 0.00 0.00 0.00 50 1007.7
20260505160527 73 196 0.0 3.0 0.00 0.00 0.00 47 1007.7
20260505153003 72 145 4.0 6.0 0.00 0.00 0.00 48 1007.6
20260505152455 72 171 0.0 9.0 0.00 0.00 0.00 49 1007.6
20260505151950 71 353 2.0 6.0 0.00 0.00 0.00 49 1007.7
20260505151445 71 169 7.0 10.0 0.00 0.00 0.00 48 1007.5
20260505150943 71 59 2.0 9.0 0.00 0.00 0.00 49 1007.6
20260505150440 71 235 5.0 11.0 0.00 0.00 0.00 51 1007.5
20260505140410 64 98 1.0 4.0 0.00 0.00 0.00 61 1007.5
20260505124823 65 228 2.0 8.0 0.00 0.00 0.00 57 1007.6
20260505124320 64 225 0.0 3.0 0.00 0.00 0.00 58 1007.8
20260505123816 64 158 4.0 4.0 0.00 0.00 0.00 60 1007.7
20260505123313 63 211 0.0 3.0 0.00 0.00 0.00 59 1007.9
20260505122809 62 8 2.0 3.0 0.00 0.00 0.00 61 1007.8
20260505122307 63 185 5.0 7.0 0.00 0.00 0.00 62 1007.8
20260505121803 63 52 1.0 3.0 0.00 0.00 0.00 60 1007.8
20260505121300 63 97 0.0 2.0 0.00 0.00 0.00 62 1007.8
20260505120756 61 184 2.0 4.0 0.00 0.00 0.00 63 1007.8
20260505120253 60 163 2.0 2.0 0.00 0.00 0.00 65 1008.0
20260505115751 61 95 4.0 7.0 0.00 0.00 0.00 64 1007.8
20260505115249 61 113 3.0 7.0 0.00 0.00 0.00 63 1007.9
20260505114746 61 202 3.0 3.0 0.00 0.00 0.00 64 1007.7
20260505114242 61 201 2.0 7.0 0.00 0.00 0.00 63 1007.6
20260505113739 61 194 0.0 2.0 0.00 0.00 0.00 62 1007.6
20260505113235 61 133 0.0 3.0 0.00 0.00 0.00 63 1007.8
20260505112731 60 133 1.0 3.0 0.00 0.00 0.00 65 1007.8
20260505112229 60 68 1.0 6.0 0.00 0.00 0.00 65 1007.7
20260505111729 60 153 1.0 4.0 0.00 0.00 0.00 64 1007.7
20260505111225 60 104 0.0 2.0 0.00 0.00 0.00 65 1007.6
20260505110721 59 205 0.0 4.0 0.00 0.00 0.00 66 1007.6
20260505110219 59 186 2.0 2.0 0.00 0.00 0.00 68 1007.4
20260505102154 56 138 3.0 4.0 0.00 0.00 0.00 70 1007.1
20260505101653 57 166 1.0 1.0 0.00 0.00 0.00 70 1007.0
20260505101149 56 164 2.0 6.0 0.00 0.00 0.00 71 1007.1
20260505100645 56 109 1.0 6.0 0.00 0.00 0.00 70 1007.0
20260505100142 56 226 0.0 0.0 0.00 0.00 0.00 72 1007.1
20260505095638 55 257 0.0 2.0 0.00 0.00 0.00 71 1006.9
20260505095136 56 200 0.0 2.0 0.00 0.00 0.00 70 1006.8
20260505094631 56 167 0.0 3.0 0.00 0.00 0.00 70 1006.9
20260505094128 56 59 2.0 3.0 0.00 0.00 0.00 69 1007.0
20260505093624 56 163 2.0 3.0 0.00 0.00 0.00 70 1006.8
20260505093122 57 58 2.0 6.0 0.00 0.00 0.00 69 1006.9
20260505092619 57 199 1.0 2.0 0.00 0.00 0.00 68 1006.8
20260505092118 57 194 1.0 2.0 0.00 0.00 0.00 69 1006.5
20260505091614 56 163 0.0 2.0 0.00 0.00 0.00 70 1006.5
20260505091112 56 183 0.0 2.0 0.00 0.00 0.00 70 1006.6
20260505090610 56 153 2.0 4.0 0.00 0.00 0.00 69 1006.6
20260505090108 56 201 1.0 2.0 0.00 0.00 0.00 68 1006.8
20260505085605 56 140 2.0 4.0 0.00 0.00 0.00 68 1006.9
20260505085103 56 208 3.0 4.0 0.00 0.00 0.00 67 1006.9
20260505084601 56 186 0.0 4.0 0.00 0.00 0.00 68 1006.8
20260505084059 56 79 2.0 4.0 0.00 0.00 0.00 68 1007.0
20260505083555 56 130 3.0 4.0 0.00 0.00 0.00 67 1007.0
20260505083052 56 98 1.0 2.0 0.00 0.00 0.00 68 1006.9
20260505082548 56 179 0.0 3.0 0.00 0.00 0.00 67 1007.0
20260505082045 55 154 1.0 3.0 0.00 0.00 0.00 68 1006.9
20260505081541 56 94 0.0 1.0 0.00 0.00 0.00 68 1006.8
20260505081039 56 169 0.0 4.0 0.00 0.00 0.00 66 1006.8
20260505080535 56 57 1.0 2.0 0.00 0.00 0.00 67 1006.8
20260505080032 56 68 2.0 3.0 0.00 0.00 0.00 66 1006.9
20260505075527 56 155 0.0 0.0 0.00 0.00 0.00 66 1006.9
20260505075024 56 175 1.0 3.0 0.00 0.00 0.00 66 1007.0
20260505074521 56 125 3.0 3.0 0.00 0.00 0.00 65 1006.9
20260505074019 56 215 1.0 3.0 0.00 0.00 0.00 65 1007.0
20260505073516 56 87 2.0 4.0 0.00 0.00 0.00 66 1007.0
20260505073014 56 117 1.0 4.0 0.00 0.00 0.00 65 1006.9
20260505072510 56 141 1.0 6.0 0.00 0.00 0.00 65 1007.0
20260505072006 56 141 2.0 4.0 0.00 0.00 0.00 64 1007.0
20260505071502 56 95 1.0 4.0 0.00 0.00 0.00 64 1006.9
20260505071000 56 206 2.0 6.0 0.00 0.00 0.00 64 1006.9
20260505070456 56 137 1.0 4.0 0.00 0.00 0.00 64 1007.0
20260505065952 56 142 3.0 6.0 0.00 0.00 0.00 64 1007.1
20260505065448 55 150 3.0 4.0 0.00 0.00 0.00 65 1007.1
20260505064946 56 91 0.0 1.0 0.00 0.00 0.00 65 1007.0
20260505064442 55 81 3.0 6.0 0.00 0.00 0.00 64 1007.0
20260505063941 55 167 0.0 1.0 0.00 0.00 0.00 65 1007.0
20260505063437 56 138 0.0 2.0 0.00 0.00 0.00 64 1007.2
20260505062934 56 69 2.0 4.0 0.00 0.00 0.00 64 1007.2
20260505062431 56 77 1.0 6.0 0.00 0.00 0.00 64 1007.2
20260505061927 56 185 1.0 4.0 0.00 0.00 0.00 63 1007.1
20260505061426 56 127 0.0 2.0 0.00 0.00 0.00 63 1007.3
20260505060923 56 158 2.0 3.0 0.00 0.00 0.00 63 1007.1
20260505060420 55 139 0.0 0.0 0.00 0.00 0.00 64 1007.0
20260505055916 56 105 0.0 3.0 0.00 0.00 0.00 63 1007.1
20260505055412 55 169 1.0 3.0 0.00 0.00 0.00 64 1007.2
20260505054909 56 203 0.0 0.0 0.00 0.00 0.00 63 1007.2
20260505054406 56 115 2.0 3.0 0.00 0.00 0.00 62 1007.3
20260505053904 55 160 0.0 4.0 0.00 0.00 0.00 63 1007.2
20260505053401 55 177 0.0 2.0 0.00 0.00 0.00 64 1007.4
20260505052858 55 161 1.0 3.0 0.00 0.00 0.00 63 1007.2
20260505052355 55 192 0.0 2.0 0.00 0.00 0.00 66 1007.2
20260505051852 55 117 1.0 1.0 0.00 0.00 0.00 64 1007.3
20260505051349 54 189 0.0 0.0 0.00 0.00 0.00 68 1007.3
20260505050847 53 196 1.0 4.0 0.00 0.00 0.00 66 1007.3
20260505050346 53 54 0.0 1.0 0.00 0.00 0.00 69 1007.3
20260505041313 51 80 0.0 0.0 0.00 0.00 0.00 71 1007.4
20260505040810 50 205 0.0 0.0 0.00 0.00 0.00 75 1007.2
20260505040308 50 220 0.0 0.0 0.00 0.00 0.00 74 1007.4
20260505035804 50 199 0.0 0.0 0.00 0.00 0.00 74 1007.4
20260505035300 51 220 0.0 0.0 0.00 0.00 0.00 73 1007.3
20260505034757 51 220 0.0 0.0 0.00 0.00 0.00 73 1007.1
20260505034254 51 220 0.0 0.0 0.00 0.00 0.00 72 1007.0
20260505033750 51 223 0.0 0.0 0.00 0.00 0.00 72 1007.1
20260505033248 51 191 0.0 0.0 0.00 0.00 0.00 71 1007.3
20260505032746 51 207 0.0 0.0 0.00 0.00 0.00 71 1007.3
20260505032242 51 224 0.0 0.0 0.00 0.00 0.00 72 1007.5
20260505031739 51 209 0.0 0.0 0.00 0.00 0.00 71 1007.6
20260505031235 51 210 0.0 0.0 0.00 0.00 0.00 70 1007.7
20260505030732 52 221 0.0 0.0 0.00 0.00 0.00 70 1007.5
20260505030228 52 216 0.0 0.0 0.00 0.00 0.00 69 1007.6
20260505025724 52 204 0.0 0.0 0.00 0.00 0.00 67 1007.8
20260505025223 52 216 0.0 0.0 0.00 0.00 0.00 68 1007.8
20260505024721 53 212 0.0 0.0 0.00 0.00 0.00 67 1007.8
20260505024217 53 224 0.0 0.0 0.00 0.00 0.00 67 1007.7
20260505023715 53 224 0.0 0.0 0.00 0.00 0.00 67 1007.9
20260505023212 54 224 0.0 0.0 0.00 0.00 0.00 66 1007.7
20260505022710 54 225 0.0 0.0 0.00 0.00 0.00 64 1008.0
20260505022206 55 218 0.0 0.0 0.00 0.00 0.00 62 1007.8
20260505021703 56 214 0.0 0.0 0.00 0.00 0.00 61 1007.8
20260505021200 56 198 0.0 0.0 0.00 0.00 0.00 61 1007.8
20260505020656 57 199 0.0 0.0 0.00 0.00 0.00 60 1007.8
20260505020151 57 174 0.0 0.0 0.00 0.00 0.00 60 1007.8
20260505015649 58 134 0.0 0.0 0.00 0.00 0.00 58 1007.9
20260505015145 57 231 0.0 0.0 0.00 0.00 0.00 57 1007.8
20260505014642 57 208 0.0 1.0 0.00 0.00 0.00 59 1007.8
20260505014139 57 204 0.0 2.0 0.00 0.00 0.00 60 1007.8
20260505013637 57 83 0.0 0.0 0.00 0.00 0.00 56 1007.7
20260505013134 57 185 0.0 0.0 0.00 0.00 0.00 58 1007.7
20260505012632 57 291 0.0 0.0 0.00 0.00 0.00 57 1007.8
20260505012128 57 175 2.0 2.0 0.00 0.00 0.00 58 1007.7
20260505011624 57 189 0.0 1.0 0.00 0.00 0.00 59 1007.9
20260505011122 56 249 0.0 0.0 0.00 0.00 0.00 57 1007.7
20260505010617 56 213 0.0 0.0 0.00 0.00 0.00 57 1007.7
20260505010114 56 212 0.0 0.0 0.00 0.00 0.00 59 1007.8
20260505005609 56 135 0.0 3.0 0.00 0.00 0.00 59 1007.5
20260505005101 56 206 0.0 2.0 0.00 0.00 0.00 59 1007.6
20260505004558 55 142 0.0 0.0 0.00 0.00 0.00 59 1007.5
20260505004055 55 178 0.0 0.0 0.00 0.00 0.00 62 1007.2
20260505003552 56 211 0.0 0.0 0.00 0.00 0.00 60 1007.3
20260505003050 56 224 0.0 0.0 0.00 0.00 0.00 59 1007.3
20260505002549 57 214 0.0 0.0 0.00 0.00 0.00 58 1007.4
20260505002043 57 199 0.0 0.0 0.00 0.00 0.00 57 1007.2
20260505001540 58 192 0.0 0.0 0.00 0.00 0.00 55 1007.3
20260505001037 58 236 0.0 0.0 0.00 0.00 0.00 54 1007.2
20260505000535 59 224 0.0 0.0 0.00 0.00 0.00 51 1007.1
20260505000032 60 212 0.0 0.0 0.00 0.00 0.00 52 1007.2
20260504235529 61 196 0.0 0.0 0.00 0.00 0.00 48 1006.9
20260504235025 61 200 0.0 2.0 0.00 0.00 0.00 48 1007.1
20260504234523 62 222 0.0 1.0 0.00 0.00 0.00 47 1006.8
20260504234020 61 205 0.0 0.0 0.00 0.00 0.00 47 1006.9
20260504233515 61 164 0.0 0.0 0.00 0.00 0.00 47 1006.9
20260504233012 62 133 0.0 1.0 0.00 0.00 0.00 47 1006.6
20260504232509 62 242 1.0 1.0 0.00 0.00 0.00 45 1006.6
20260504232007 63 211 0.0 2.0 0.00 0.00 0.00 46 1006.6
20260504231503 63 203 0.0 0.0 0.00 0.00 0.00 45 1006.6
20260504230959 63 114 0.0 0.0 0.00 0.00 0.00 45 1006.6
20260504230455 64 223 0.0 0.0 0.00 0.00 0.00 43 1006.8
20260504225955 64 88 1.0 2.0 0.00 0.00 0.00 44 1006.6
20260504225451 64 140 1.0 1.0 0.00 0.00 0.00 44 1006.4
20260504224948 64 285 0.0 4.0 0.00 0.00 0.00 44 1006.5
20260504224444 64 224 0.0 0.0 0.00 0.00 0.00 45 1006.4
20260504223942 64 140 4.0 6.0 0.00 0.00 0.00 43 1006.3
20260504223438 64 103 0.0 3.0 0.00 0.00 0.00 42 1006.2
20260504222933 64 316 0.0 1.0 0.00 0.00 0.00 43 1006.3
20260504222431 64 145 0.0 1.0 0.00 0.00 0.00 43 1006.4
20260504221929 64 245 0.0 9.0 0.00 0.00 0.00 43 1006.2
20260504221425 64 77 1.0 2.0 0.00 0.00 0.00 42 1006.2
20260504220923 64 126 0.0 2.0 0.00 0.00 0.00 43 1006.4
20260504220419 64 255 0.0 0.0 0.00 0.00 0.00 42 1006.1
20260504215916 64 225 0.0 1.0 0.00 0.00 0.00 42 1006.3
20260504215413 64 286 4.0 4.0 0.00 0.00 0.00 42 1006.2
20260504214909 64 345 0.0 2.0 0.00 0.00 0.00 42 1006.4
20260504214406 65 229 1.0 4.0 0.00 0.00 0.00 42 1006.5
20260504213903 65 158 1.0 2.0 0.00 0.00 0.00 42 1006.4
20260504213359 65 234 2.0 3.0 0.00 0.00 0.00 43 1006.5
20260504212856 65 56 0.0 2.0 0.00 0.00 0.00 42 1006.3
20260504212352 65 196 4.0 7.0 0.00 0.00 0.00 40 1006.8
20260504211850 65 116 2.0 8.0 0.00 0.00 0.00 40 1006.9
20260504211346 65 102 0.0 0.0 0.00 0.00 0.00 41 1006.9
20260504210843 65 232 0.0 3.0 0.00 0.00 0.00 42 1006.8
20260504210340 65 234 0.0 2.0 0.00 0.00 0.00 42 1006.6
20260504205837 65 240 0.0 1.0 0.00 0.00 0.00 42 1006.8
20260504205335 64 141 2.0 6.0 0.00 0.00 0.00 41 1006.8
20260504204833 64 149 2.0 7.0 0.00 0.00 0.00 41 1006.8
20260504204331 65 215 2.0 2.0 0.00 0.00 0.00 43 1006.8
20260504203830 65 165 1.0 2.0 0.00 0.00 0.00 41 1006.8
20260504203327 66 75 0.0 2.0 0.00 0.00 0.00 39 1007.0
20260504202822 65 223 2.0 4.0 0.00 0.00 0.00 39 1006.8
20260504202320 66 207 0.0 6.0 0.00 0.00 0.00 39 1007.0
20260504201817 65 306 1.0 8.0 0.00 0.00 0.00 41 1006.8
20260504201314 65 239 0.0 1.0 0.00 0.00 0.00 42 1007.2